Regional Weather Roundup
Issued by NWS Upton, NY

Current Version | Previous Version | Text Only | Print | Product List | Glossary Off
Versions: 1 2 3 4 5 6 7 8 9 10 11 12 13 14 15 16 17 18 19 20 21 22 23 24 25 26 27
000 ASUS41 KOKX 250908 RWROKX REGIONAL WEATHER ROUNDUP NATIONAL WEATHER SERVICE NEW YORK NY 500 AM EDT TUE APR 25 2017 NOTE: "FAIR" INDICATES FEW OR NO CLOUDS BELOW 12,000 FEET WITH NO SIGNIFICANT WEATHER AND/OR OBSTRUCTIONS TO VISIBILITY. NYZ071-072-176-178-NJZ106-104-251000- NEW YORK CITY METRO AREA CITY SKY/WX TMP DP RH WIND PRES REMARKS Central Park CLOUDY 50 48 93 E8G25 30.10S Wall St Helipt LGT RAIN 51 47 86 NE17 30.07S Bronx Bot Gard N/A 48 46 93 N6 30.09S LaGuardia APRT CLOUDY 50 47 89 NE21 30.08R Kennedy INTL LGT RAIN 52 49 89 NE16G23 30.08S Breezy Point N/A 50 N/A N/A NE10G16 N/A Newark/Liberty LGT RAIN 51 48 89 NE12 30.07S Teterboro LGT RAIN 52 48 86 NE8 30.07F $$ NYZ177-179-078>081-251000- LONG ISLAND NEW YORK CITY SKY/WX TMP DP RH WIND PRES REMARKS Jones Beach N/A 52 N/A N/A NE21 N/A Matinecock PT N/A 48 N/A N/A E25 N/A Farmingdale LGT RAIN 50 48 93 NE12 30.08R MacArthur/ISP LGT RAIN 50 49 96 NE13 30.08S Shirley LGT RAIN 51 50 96 VRB5 30.10S Mt Sinai Harb N/A N/A N/A N/A E10G16 N/A Westhampton LGT RAIN 51 48 89 E12 30.11S East Hampton DRIZZLE 49 48 94 E8G17 30.12R Montauk N/A 49 47 93 E12G20 30.13S $$ NYZ052-065-067-251000- HUDSON VALLEY CITY SKY/WX TMP DP RH WIND PRES REMARKS White Plains LGT RAIN 50 47 89 NE14G22 30.09S FOG Larchmont Harb N/A 48 N/A N/A NE25 N/A Croton O-T Hud N/A 50 N/A N/A MISG N/A Newburgh MOCLDY 50 45 81 NE8 30.12F Montgomery LGT RAIN 50 42 74 NE7 30.11S Poughkeepsie CLOUDY 49 43 80 CALM 30.11F Albany LGT RAIN 46 29 51 N6 30.16R $$ NJZ001-105-106-008-010-013-015-019>022-104-251000- NEW JERSEY CITY SKY/WX TMP DP RH WIND PRES REMARKS Newark/Liberty LGT RAIN 51 48 89 NE12 30.07S Teterboro LGT RAIN 52 48 86 NE8 30.07F Caldwell LGT RAIN 51 47 86 NE10 30.08S Somerville CLOUDY 53 46 77 VRB7 30.05R Linden CLOUDY 52 47 84 CALM 30.07S Sussex LGT RAIN 51 42 71 NE10 30.09S Andover N/A 51 42 71 NE7 30.07R Trenton CLOUDY 52 50 93 E18G24 30.01F Millville CLOUDY 54 54 100 NE16G22 29.94F FOG Atlantic City FOG 52 51 97 NE16G24 29.95F VSB 1 Wrightstown CLOUDY 52 50 93 NE14 29.98S Toms River LGT RAIN 50 50 100 NE12 30.02S FOG Belmar RAIN 49 48 97 NE17G25 30.04S FOG $$ PAZ047>061-062-071-251000- EASTERN PENNSYLVANIA CITY SKY/WX TMP DP RH WIND PRES REMARKS Philadelphia RAIN 53 51 93 NE15G22 29.99F FOG Allentown CLOUDY 54 40 59 E14 30.03S Scranton LGT RAIN 55 36 48 NE10 30.02S $$ CTZ002-004>006-009-010-012-RIZ004-006-007-MAZ004-011-015-251000- SOUTHERN NEW ENGLAND IN CT CITY SKY/WX TMP DP RH WIND PRES REMARKS Bradley INTL LGT RAIN 52 40 63 NE7 30.16S Hartford CLOUDY 53 44 71 NE3 30.15S Danbury LGT RAIN 48 46 93 E6 30.13R Wtrbury/Oxford CLOUDY 48 39 71 E7 30.14R Bridgeport LGT RAIN 53 49 86 NE12 30.11S Meriden LGT RAIN 52 44 74 NE6 30.14R New Haven CLOUDY 51 49 92 NE7 30.13R Chester LGT RAIN 50 50 100 E7 30.13S Groton CLOUDY 52 49 89 NE9 30.13S Wilimantic CLOUDY 53 47 79 NE7 30.16S IN RI CITY SKY/WX TMP DP RH WIND PRES REMARKS Providence CLOUDY 51 48 89 NE10 30.18S Block Island LGT RAIN 48 47 96 E15G22 30.13F Westerly LGT RAIN 53 50 89 NE10 30.14S IN MA CITY SKY/WX TMP DP RH WIND PRES REMARKS Boston CLOUDY 47 45 93 NE12 30.23S Worcester CLOUDY 47 37 68 NE8 30.18S Westfield CLOUDY 53 37 54 NE8 30.16S Provincetown LGT RAIN 46 44 93 E16 30.22S Nantucket LGT RAIN 50 47 89 E16 30.16F $$ ANZ330-335-338-340-345-350-353-355-251000- COASTAL MARINE OBSERVATIONS STATION/POSITION TIME SKY/WX TEMP WIND PRES VSBY WAVE AIR SEA DIR/SP/G HT/PER (UTC) (F) (DEG/KT/KT) (MB) (MI) (FT/S) NY HARB ENTRANCE 0750 49 50 50/ 19/ 23 1017.0 5/ 4 20 S FIRE ISLAND 0850 48 47 60/ 19/ 23 1016.4 5/ 6 GREAT SOUTH BAY 0830 52 55 60/ 16/ 19 N/A 23 SSW MONTAUK P 0750 47 45 1018.9 4/ 6 15 E BARNEGAT LI 0830 50 N/A 6/ 7 HUDSON CANYON 0750 49 47 80/ 16/ 17 1015.7 6/ 7 KINGS POINT 0848 49 47 90/ 5/ 8 1018.4 EXECUTION ROCKS NOT AVBL CENTRAL LI SOUND 0830 48 70/ 14/ 17 N/A 1/ 4 EASTERN LI SOUND NOT AVBL ROBBINS REEF 0848 50 50/ 15/ 18 1018.4 $$ >>>>>>>>>>>>>>>>>>>>>>>>>>>> KEY <<<<<<<<<<<<<<<<<<<<<<<<<<< > < > SKY/WX - Sky Condition/Present Weather < > TMP - Temperature in Fahrenheit < > DP - Dew Point in Fahrenheit < > RH - Relative Humidity in Percent < > WIND - Direction (from) and Speed in MPH < > PRES - Mean Sea Level Pressure (inches of Hg) < > WCI - Wind Chill Index < > VSB - VISIBILITY IN MILES < > HX - HEAT INDEX < > TC - TEMPERATURE IN CELSIUS < > VRB - VARIABLE WIND DIRECTION < > < >>>>>>>>>>>>>>>>>>>>>>>>>>>> KEY <<<<<<<<<<<<<<<<<<<<<<<<<<<

USA.gov is the U.S. government's official web portal to all federal, state and local government web resources and services.